Indianapolis, IN

2:34 AM EDT on September 01, 2016 (GMT -0400)
Indianapolis International

Weather History for KIND - March, 2015

Change the Weather History Date:

Saturday, March 14, 2015

  Actual Average Record
Temperature  
Mean Temperature 51 °F 42 °F  
Max Temperature 59 °F 51 °F 81 °F (2012)
Min Temperature 43 °F 32 °F 10 °F (1891)
Degree Days  
Heating Degree Days 14 23  
Month to date heating degree days 418 363  
Since 1 July heating degree days 5144 4506  
Cooling Degree Days 0 0  
Month to date cooling degree days 0 0  
Year to date cooling degree days 0 0  
Growing Degree Days 2 (Base 50)    
Moisture  
Dew Point 46 °F    
Average Humidity 78    
Maximum Humidity 100    
Minimum Humidity 55    
Precipitation  
Precipitation 0.43 in 0.11 in 3.02 in (1922)
Month to date precipitation 2.22 1.45  
Year to date precipitation 5.37 6.43  
Snow  
Snow 0.00 in 0.00 in 5.30 in (1975)
Month to date snowfall 5.9 1.6  
Since 1 July snowfall 25.6 24.7  
Snow Depth 0.00 in    
Sea Level Pressure  
Sea Level Pressure 30.00 in    
Wind  
Wind Speed 9 mph (West)    
Max Wind Speed 20 mph    
Max Gust Speed 25 mph    
Visibility 4 miles    
Events Fog , Rain    
T = Trace of Precipitation, MM = Missing Value Source: NWS Daily Summary

Daily Weather History Graph

Daily Weather History Graph

Search for Another Location

Airport or City:

Trip Planner

Search our weather history database for the weather conditions in past years. The results will help you decide how hot, cold, wet, or windy it might be!

Date:

Astronomy

Mar. 14, 2015 Rise Set
Actual Time 7:58 AM EDT 7:50 PM EDT
Civil Twilight 7:31 AM EDT 8:17 PM EDT
Nautical Twilight 7:00 AM EDT 8:49 PM EDT
Astronomical Twilight 6:28 AM EDT 9:20 PM EDT
Moon 3:25 AM EDT (3/14) 1:39 PM EDT (3/14)
Length of Visible Light 12h 45m
Length of Day
11h 52m
Last Quarter, 40% of the Moon is Illuminated
Mar 14
Last Quarter
Mar 20
New
Mar 27
First Quarter
Apr 4
Full
Apr 11
Last Quarter

Hourly Weather History & Observations

Time (EDT) Temp. Windchill Dew Point Humidity Pressure Visibility Wind Dir Wind Speed Gust Speed Precip Events Conditions
12:13 AM 51.1 °F - 50.0 °F 96% 30.02 in 0.5 mi South 3.5 mph - 0.03 in Rain Light Rain
12:52 AM 51.8 °F - 50.0 °F 94% 30.01 in 0.5 mi South 3.5 mph - 0.04 in Rain Light Rain
12:54 AM 51.1 °F - 50.0 °F 96% 30.01 in 0.5 mi South 3.5 mph - 0.04 in Rain Light Rain
1:30 AM 51.1 °F - 50.0 °F 96% 30.00 in 0.5 mi South 3.5 mph - 0.03 in Rain Light Rain
1:50 AM 51.8 °F - 50.0 °F 94% 29.99 in 0.5 mi South 4.6 mph - 0.05 in Rain Rain
1:54 AM 51.1 °F - 50.0 °F 96% 29.99 in 0.5 mi South 4.6 mph - 0.05 in Rain Light Rain
2:10 AM 51.1 °F - 50.0 °F 96% 29.99 in 0.5 mi Calm Calm - 0.02 in Rain Light Rain
2:54 AM 50.0 °F - 50.0 °F 100% 29.99 in 0.5 mi SSW 3.5 mph - 0.09 in Rain Light Rain
3:21 AM 51.1 °F - 50.0 °F 96% 29.98 in 0.5 mi SSW 4.6 mph - 0.04 in Rain Light Rain
3:41 AM 51.1 °F - 50.0 °F 96% 29.97 in 0.5 mi SW 4.6 mph - 0.06 in Rain Light Rain
3:54 AM 51.1 °F - 50.0 °F 96% 29.97 in 0.5 mi WSW 4.6 mph - 0.08 in Rain Light Rain
4:16 AM 51.1 °F - 50.0 °F 96% 29.96 in 0.5 mi WSW 4.6 mph - 0.03 in Rain Rain
4:34 AM 51.1 °F - 48.9 °F 92% 29.95 in 0.5 mi WSW 5.8 mph - 0.07 in Rain Rain
4:54 AM 51.1 °F - 50.0 °F 96% 29.95 in 0.5 mi WSW 4.6 mph - 0.11 in Rain Light Rain
5:03 AM 51.1 °F - 50.0 °F 96% 29.95 in 0.5 mi WSW 4.6 mph - 0.00 in Rain Light Rain
5:25 AM 50.0 °F - 48.9 °F 96% 29.95 in 0.5 mi West 4.6 mph - 0.01 in Rain Light Rain
5:39 AM 51.1 °F - 48.9 °F 92% 29.95 in 0.5 mi West 4.6 mph - 0.02 in Rain Light Rain
5:54 AM 50.0 °F - 48.9 °F 96% 29.96 in 0.5 mi WSW 5.8 mph - 0.03 in Rain Light Rain
6:16 AM 50.0 °F - 48.9 °F 96% 29.96 in 0.5 mi West 4.6 mph - 0.01 in Rain Light Rain
6:25 AM 50.0 °F - 48.9 °F 96% 29.97 in 2.0 mi WSW 4.6 mph - 0.01 in Rain Light Rain
6:36 AM 50.0 °F - 48.9 °F 96% 29.96 in 1.0 mi West 4.6 mph - 0.01 in Rain Light Rain
6:54 AM 50.0 °F - 48.9 °F 96% 29.96 in 0.5 mi West 3.5 mph - 0.02 in Fog , Rain Light Rain
7:01 AM 50.0 °F - 48.9 °F 96% 29.96 in 0.5 mi WSW 4.6 mph - 0.00 in Rain Light Rain
7:54 AM 50.0 °F - 48.0 °F 93% 29.99 in 0.5 mi WNW 8.1 mph - 0.02 in Rain Light Rain
8:32 AM 50.0 °F - 48.0 °F 93% 29.98 in 5.0 mi NW 6.9 mph - 0.03 in   Overcast
8:54 AM 50.0 °F - 48.0 °F 93% 29.99 in 5.0 mi NW 10.4 mph - 0.03 in   Overcast
9:54 AM 50.0 °F - 48.0 °F 93% 30.00 in 6.0 mi NNW 9.2 mph - N/A   Overcast
10:28 AM 48.9 °F - 46.0 °F 90% 30.01 in 6.0 mi NNW 10.4 mph - N/A   Mostly Cloudy
10:54 AM 50.0 °F - 44.6 °F 82% 30.01 in 9.0 mi NNW 10.4 mph - N/A   Mostly Cloudy
11:54 AM 52.0 °F - 45.0 °F 77% 30.02 in 9.0 mi NNW 9.2 mph - N/A   Mostly Cloudy
12:54 PM 53.1 °F - 44.1 °F 71% 30.03 in 10.0 mi NW 15.0 mph - N/A   Overcast
1:54 PM 55.0 °F - 43.0 °F 64% 30.02 in 10.0 mi NNW 13.8 mph - N/A   Mostly Cloudy
2:54 PM 57.0 °F - 44.1 °F 62% 30.01 in 10.0 mi NW 13.8 mph - N/A   Mostly Cloudy
3:54 PM 57.9 °F - 42.1 °F 56% 30.00 in 10.0 mi NW 17.3 mph 24.2 mph N/A   Mostly Cloudy
4:54 PM 55.9 °F - 42.1 °F 60% 30.02 in 10.0 mi NW 12.7 mph - N/A   Mostly Cloudy
5:54 PM 57.0 °F - 41.0 °F 55% 30.03 in 10.0 mi NW 10.4 mph - N/A   Mostly Cloudy
6:54 PM 55.9 °F - 39.9 °F 55% 30.04 in 10.0 mi WNW 12.7 mph - N/A   Mostly Cloudy
7:54 PM 52.0 °F - 39.9 °F 63% 30.06 in 10.0 mi WNW 9.2 mph - N/A   Mostly Cloudy
8:54 PM 50.0 °F - 39.0 °F 66% 30.08 in 10.0 mi WNW 8.1 mph - N/A   Mostly Cloudy
9:54 PM 46.9 °F - 37.9 °F 71% 30.11 in 10.0 mi West 8.1 mph - N/A   Mostly Cloudy
10:54 PM 45.0 °F 40.6 °F 37.0 °F 74% 30.12 in 10.0 mi West 8.1 mph - N/A   Mostly Cloudy
11:54 PM 44.1 °F 39.5 °F 37.0 °F 76% 30.14 in 10.0 mi West 8.1 mph - N/A   Mostly Cloudy